Previsão horária em Barlogi

Hoje, 21 Outubro, Quarta-feira

Tempo Temperatura Precipitação Vento Pressão Humidade
00:00 +8°C° 0.1 mm 4 m/s 749 mmHg 81%
01:00 +8°C° 0.1 mm 4 m/s 748 mmHg 83%
02:00 +8°C° 0.3 mm 4 m/s 748 mmHg 85%
03:00 +8°C° 0.3 mm 4 m/s 748 mmHg 86%
04:00 +9°C° 0.3 mm 3 m/s 748 mmHg 87%
05:00 +8°C° 0 mm 4 m/s 748 mmHg 88%
06:00 +8°C° 0 mm 4 m/s 748 mmHg 90%
07:00 +10°C° 0 mm 4 m/s 748 mmHg 91%
08:00 +10°C° 0.1 mm 4 m/s 748 mmHg 91%
09:00 +10°C° 0.1 mm 4 m/s 748 mmHg 90%
10:00 +11°C° 0.1 mm 4 m/s 749 mmHg 90%
11:00 +10°C° 0.1 mm 4 m/s 748 mmHg 91%
12:00 +10°C° 0.1 mm 3 m/s 748 mmHg 92%
13:00 +10°C° 0.1 mm 3 m/s 748 mmHg 93%
14:00 +10°C° 0 mm 3 m/s 748 mmHg 90%
15:00 +10°C° 0 mm 3 m/s 748 mmHg 88%
16:00 +10°C° 0 mm 3 m/s 747 mmHg 86%
17:00 +10°C° 0 mm 3 m/s 747 mmHg 84%
18:00 +10°C° 0 mm 3 m/s 747 mmHg 82%
19:00 +10°C° 0 mm 3 m/s 747 mmHg 80%
20:00 +10°C° 0 mm 4 m/s 747 mmHg 80%
21:00 +10°C° 0 mm 4 m/s 746 mmHg 80%
22:00 +10°C° 0 mm 4 m/s 746 mmHg 80%
23:00 +9°C° 0 mm 5 m/s 746 mmHg 79%

Amanhã, 22 Outubro, Quinta-feira

Tempo Temperatura Precipitação Vento Pressão Humidade
00:00 +10°C° 0 mm 5 m/s 746 mmHg 77%
01:00 +10°C° 0 mm 6 m/s 746 mmHg 75%
02:00 +10°C° 0 mm 6 m/s 746 mmHg 74%
03:00 +11°C° 0 mm 6 m/s 746 mmHg 74%
04:00 +11°C° 0 mm 6 m/s 746 mmHg 73%
05:00 +11°C° 0 mm 6 m/s 746 mmHg 76%
06:00 +11°C° 0 mm 6 m/s 747 mmHg 79%
07:00 +11°C° 0 mm 6 m/s 747 mmHg 82%
08:00 +13°C° 0 mm 6 m/s 747 mmHg 80%
09:00 +14°C° 0 mm 6 m/s 748 mmHg 78%
10:00 +15°C° 0 mm 6 m/s 748 mmHg 75%
11:00 +16°C° 0 mm 6 m/s 748 mmHg 72%
12:00 +17°C° 0 mm 6 m/s 748 mmHg 69%
13:00 +17°C° 0 mm 6 m/s 748 mmHg 66%
14:00 +17°C° 0 mm 5 m/s 748 mmHg 69%
15:00 +17°C° 0 mm 4 m/s 748 mmHg 71%
16:00 +17°C° 0 mm 4 m/s 748 mmHg 73%
17:00 +15°C° 0 mm 4 m/s 748 mmHg 76%
18:00 +15°C° 0 mm 4 m/s 748 mmHg 78%
19:00 +14°C° 0 mm 4 m/s 749 mmHg 81%
20:00 +14°C° 0 mm 4 m/s 748 mmHg 82%
21:00 +14°C° 0 mm 4 m/s 748 mmHg 83%
22:00 +14°C° 0 mm 4 m/s 748 mmHg 84%
23:00 +14°C° 0 mm 4 m/s 748 mmHg 83%

Depois de amanhã, 23 Outubro, Sexta-feira

Tempo Temperatura Precipitação Vento Pressão Humidade
00:00 +14°C° 0 mm 5 m/s 748 mmHg 83%
01:00 +14°C° 0 mm 5 m/s 747 mmHg 82%
02:00 +14°C° 0.3 mm 5 m/s 747 mmHg 83%
03:00 +14°C° 0.3 mm 5 m/s 747 mmHg 83%
04:00 +14°C° 0.3 mm 5 m/s 747 mmHg 84%
05:00 +13°C° 0.1 mm 5 m/s 746 mmHg 86%
06:00 +13°C° 0.1 mm 5 m/s 746 mmHg 87%
07:00 +13°C° 0.1 mm 5 m/s 746 mmHg 89%
08:00 +14°C° 0 mm 5 m/s 746 mmHg 83%
09:00 +14°C° 0 mm 6 m/s 747 mmHg 77%
10:00 +15°C° 0 mm 6 m/s 747 mmHg 72%
11:00 +16°C° 0 mm 6 m/s 747 mmHg 67%
12:00 +16°C° 0 mm 6 m/s 747 mmHg 63%
13:00 +16°C° 0 mm 6 m/s 747 mmHg 58%
14:00 +16°C° 0 mm 5 m/s 747 mmHg 61%
15:00 +15°C° 0 mm 4 m/s 747 mmHg 65%
16:00 +14°C° 0 mm 3 m/s 747 mmHg 68%
17:00 +14°C° 0 mm 2 m/s 747 mmHg 73%
18:00 +13°C° 0 mm 2 m/s 747 mmHg 77%
19:00 +12°C° 0 mm 2 m/s 747 mmHg 82%
20:00 +12°C° 0 mm 2 m/s 747 mmHg 84%
21:00 +12°C° 0 mm 2 m/s 747 mmHg 86%
22:00 +10°C° 0 mm 2 m/s 747 mmHg 88%
23:00 +10°C° 0 mm 2 m/s 747 mmHg 88%

24 Outubro, Sábado

Tempo Temperatura Precipitação Vento Pressão Humidade
00:00 +12°C° 0 mm 2 m/s 747 mmHg 88%
01:00 +12°C° 0 mm 2 m/s 746 mmHg 89%
02:00 +12°C° 0.1 mm 2 m/s 746 mmHg 90%
03:00 +12°C° 0.1 mm 2 m/s 746 mmHg 92%
04:00 +12°C° 0.1 mm 2 m/s 745 mmHg 93%
05:00 +11°C° 0.2 mm 3 m/s 745 mmHg 93%
06:00 +11°C° 0.2 mm 3 m/s 745 mmHg 92%
07:00 +11°C° 0.2 mm 4 m/s 745 mmHg 92%
08:00 +11°C° 1 mm 4 m/s 745 mmHg 89%
09:00 +10°C° 1 mm 5 m/s 745 mmHg 87%
10:00 +10°C° 1 mm 6 m/s 745 mmHg 84%
11:00 +10°C° 0.2 mm 7 m/s 745 mmHg 79%
12:00 +10°C° 0.2 mm 7 m/s 746 mmHg 73%
13:00 +11°C° 0.2 mm 8 m/s 746 mmHg 68%
14:00 +10°C° 0 mm 7 m/s 747 mmHg 68%
15:00 +10°C° 0 mm 7 m/s 747 mmHg 68%
16:00 +9°C° 0 mm 6 m/s 748 mmHg 68%
17:00 +8°C° 0 mm 5 m/s 748 mmHg 71%
18:00 +8°C° 0 mm 5 m/s 749 mmHg 74%
19:00 +7°C° 0 mm 4 m/s 750 mmHg 77%
20:00 +7°C° 0 mm 4 m/s 750 mmHg 79%
21:00 +6°C° 0 mm 4 m/s 751 mmHg 81%
22:00 +6°C° 0 mm 4 m/s 751 mmHg 82%
23:00 +6°C° 0 mm 4 m/s 751 mmHg 84%

25 Outubro, Domingo

Tempo Temperatura Precipitação Vento Pressão Humidade
00:00 +7°C° 0 mm 3 m/s 751 mmHg 86%
01:00 +5°C° 0 mm 3 m/s 751 mmHg 88%
02:00 +5°C° 0 mm 3 m/s 752 mmHg 89%
03:00 +6°C° 0 mm 2 m/s 752 mmHg 89%
04:00 +5°C° 0 mm 2 m/s 752 mmHg 90%
05:00 +5°C° 0 mm 2 m/s 752 mmHg 91%
06:00 +5°C° 0 mm 2 m/s 752 mmHg 91%
07:00 +5°C° 0 mm 2 m/s 752 mmHg 91%
08:00 +6°C° 0 mm 2 m/s 752 mmHg 84%
09:00 +8°C° 0 mm 3 m/s 752 mmHg 77%
10:00 +9°C° 0 mm 3 m/s 752 mmHg 71%
11:00 +10°C° 0 mm 3 m/s 752 mmHg 68%
12:00 +11°C° 0 mm 4 m/s 752 mmHg 64%
13:00 +12°C° 0 mm 4 m/s 751 mmHg 61%
14:00 +11°C° 0 mm 3 m/s 751 mmHg 65%
15:00 +11°C° 0 mm 3 m/s 751 mmHg 68%
16:00 +10°C° 0 mm 3 m/s 750 mmHg 71%
17:00 +10°C° 0 mm 3 m/s 750 mmHg 74%
18:00 +9°C° 0 mm 3 m/s 750 mmHg 77%
19:00 +8°C° 0 mm 3 m/s 750 mmHg 79%
20:00 +8°C° 0 mm 3 m/s 750 mmHg 79%
21:00 +7°C° 0 mm 4 m/s 750 mmHg 79%
22:00 +7°C° 0 mm 4 m/s 750 mmHg 78%
23:00 +6°C° 0 mm 4 m/s 750 mmHg 78%

26 Outubro, Segunda-feira

Tempo Temperatura Precipitação Vento Pressão Humidade
00:00 +6°C° 0 mm 4 m/s 750 mmHg 78%
01:00 +6°C° 0 mm 4 m/s 749 mmHg 78%
02:00 +6°C° 0 mm 4 m/s 749 mmHg 79%
03:00 +5°C° 0 mm 3 m/s 749 mmHg 80%
04:00 +5°C° 0 mm 3 m/s 749 mmHg 81%
05:00 +5°C° 0 mm 3 m/s 749 mmHg 81%
06:00 +5°C° 0 mm 4 m/s 749 mmHg 82%
07:00 +4°C° 0 mm 4 m/s 749 mmHg 82%
08:00 +6°C° 0 mm 4 m/s 748 mmHg 78%
09:00 +7°C° 0 mm 4 m/s 748 mmHg 74%
10:00 +8°C° 0 mm 4 m/s 748 mmHg 69%
11:00 +10°C° 0 mm 4 m/s 748 mmHg 67%
12:00 +11°C° 0 mm 4 m/s 748 mmHg 65%
13:00 +11°C° 0 mm 4 m/s 748 mmHg 63%
14:00 +11°C° 0 mm 3 m/s 748 mmHg 67%
15:00 +10°C° 0 mm 3 m/s 748 mmHg 70%
16:00 +9°C° 0 mm 3 m/s 747 mmHg 73%
17:00 +9°C° 0 mm 2 m/s 748 mmHg 76%
18:00 +8°C° 0 mm 2 m/s 748 mmHg 79%
19:00 +8°C° 0 mm 2 m/s 748 mmHg 82%
20:00 +8°C° 0.1 mm 2 m/s 748 mmHg 83%
21:00 +9°C° 0.1 mm 2 m/s 748 mmHg 84%
22:00 +9°C° 0.1 mm 2 m/s 748 mmHg 85%
23:00 +9°C° 0.5 mm 2 m/s 748 mmHg 87%

27 Outubro, Terça-feira

Tempo Temperatura Precipitação Vento Pressão Humidade
00:00 +9°C° 0.5 mm 2 m/s 749 mmHg 90%
01:00 +9°C° 0.5 mm 2 m/s 749 mmHg 93%
02:00 +9°C° 0.2 mm 2 m/s 749 mmHg 93%
03:00 +9°C° 0.2 mm 2 m/s 749 mmHg 93%
04:00 +9°C° 0.2 mm 2 m/s 749 mmHg 93%
05:00 +9°C° 0 mm 2 m/s 750 mmHg 94%
06:00 +9°C° 0 mm 2 m/s 750 mmHg 94%
07:00 +9°C° 0 mm 2 m/s 750 mmHg 94%
08:00 +10°C° 0 mm 2 m/s 750 mmHg 92%
09:00 +12°C° 0 mm 2 m/s 751 mmHg 90%
10:00 +12°C° 0 mm 2 m/s 751 mmHg 88%
11:00 +13°C° 0 mm 2 m/s 751 mmHg 85%
12:00 +13°C° 0 mm 2 m/s 752 mmHg 82%
13:00 +14°C° 0 mm 2 m/s 752 mmHg 80%
14:00 +13°C° 0 mm 2 m/s 752 mmHg 80%
15:00 +13°C° 0 mm 2 m/s 752 mmHg 81%
16:00 +13°C° 0 mm 1 m/s 752 mmHg 82%
17:00 +13°C° 0 mm 2 m/s 752 mmHg 83%
18:00 +12°C° 0 mm 2 m/s 753 mmHg 83%
19:00 +12°C° 0 mm 2 m/s 753 mmHg 84%
20:00 +12°C° 0 mm 2 m/s 753 mmHg 87%
21:00 +10°C° 0 mm 2 m/s 753 mmHg 90%
22:00 +9°C° 0 mm 2 m/s 753 mmHg 92%
23:00 +9°C° 0 mm 3 m/s 753 mmHg 93%
Mostrar mais